Find Starlink 35365

NORAD ID: 66186 Int'l Des: 2025-243 Owner: SPXS Country: US Constellation: starlink operational
LEOCIRCULAR

Current View

Loading 3D Globe...

About Starlink 35365

Starlink 35365 (NORAD 66186) is a starlink constellation satellite (v2 mini) launched Oct 26, 2025 by SPXS of US. It operates in LEO, CIRCULAR orbit with a mass of 575.00 kg.

Upcoming Passes

Passes for default location (London). Set your location on the main map for personalized predictions.

Altitude History

Loading altitude history...

Two-Line Element Set

1 66186U 25243K 26252.01793596 .00019057 00000-0 57381-3 0 9999
2 66186 53.1572 111.4858 0001155 72.1208 287.9920 15.34394975 48753
Epoch: Sep 9, 2026 • Age: 12 hours

Current Status

Altitude 477.0 km
Apogee / Perigee N/A
Velocity 7.63 km/s
Sub-Earth Point -41.63°S, 111.36°W
Launch Date Oct 26, 2025
Age 0.8 years
Type internet

Technical Details

Classification Payload
Mass 575.00 kg
Dry Mass 530.00 kg
Total Mass 575.00 kg
Length 0.30 m
Diameter 4.10 m
Span 29.00 m
Shape Box + pan
Manufacturer SPXS
Bus Type Starlink V2MO
Phase Status In Orbit
Owner/State SPXS/US

Most Searched